Terminal Aerodrome Forecast
Issued by NWS

Home | Current Version | Previous Version | Text Only | Print | Product List | Glossary On
Versions: 1 2 3 4 5 6 7 8 9 10 11 12
000
FTUS46 KHNX 282300
TAFMER
TAF
KMER 282320Z 2900/2924 31008KT P6SM BKN150
     FM291200 VRB04KT P6SM BKN150
     FM291800 32008KT P6SM BKN150=

USA.gov is the U.S. government's official web portal to all federal, state and local government web resources and services.